Regional Weather Roundup
Issued by NWS

Home | Current Version | Previous Version | Graphics & Text | Print | Product List | Glossary On
Versions: 1 2 3 4 5 6 7 8 9 10 11 12 13 14 15 16 17 18 19 20 21 22 23 24 25 26 27 28 29 30 31 32 33 34 35 36 37 38 39 40 41 42 43 44 45 46 47 48 49 50
000
ASUS43 KDMX 231006
RWRIA

WEATHER ROUNDUP FOR IOWA
NATIONAL WEATHER SERVICE DES MOINES IA
500 AM CDT MON OCT 23 2017

NOTE: "FAIR" INDICATES FEW OR NO CLOUDS BELOW 12,000 FEET WITH NO
SIGNIFICANT WEATHER AND/OR OBSTRUCTIONS TO VISIBILITY.

* - THESE STATIONS ARE NOT NWS STATIONS...THUS NOT UNDER NWS
QUALITY CONTROL.  THEY ALSO DO NOT REPORT WEATHER SUCH
AS PRECIPITATION OR FOG.

IAZ001>003-012>014-020>022-031>034-043>046-231100-
   NORTHWEST IOWA

CITY           SKY/WX    TMP DP  RH WIND       PRES   REMARKS
CHEROKEE *     CLOUDY    47  35  63 CALM      29.84R
DENISON *      PTCLDY    50  34  53 VRB5      29.86F
LE MARS *      PTCLDY    46  36  66 S3        29.85R
ORANGE CITY *  CLOUDY    46  36  66 SW5       29.84S
SHELDON *      CLOUDY    43  34  70 W5        29.82F
SIOUX CITY     MOCLDY    43  38  82 CALM      29.86R
SPENCER        PTCLDY    46  34  62 CALM      29.82S
STORM LAKE *   CLOUDY    50  32  50 SW13      29.83S
$$

IAZ055>058-069>071-079>083-090>094-231100-
   SOUTHWEST IOWA

CITY           SKY/WX    TMP DP  RH WIND       PRES   REMARKS
ATLANTIC *     CLEAR     43  37  81 S7        29.87F
AUDUBON *      CLEAR     45  37  76 CALM      29.87F
CLARINDA *     CLOUDY    43  39  87 S6        29.93F
COUNCIL BLFS * CLOUDY    48  36  61 S8        29.85F
CRESTON *      CLEAR     43  39  87 S12       29.92F
HARLAN  *      PTCLDY    45  36  70 SW3       29.89F
LAMONI         CLEAR     45  40  82 S10       29.93F
RED OAK *      CLOUDY    45  36  70 S7        29.89F
SHENANDOAH *   PTCLDY    45  37  76 SE5       29.89F
$$

IAZ047>049-059>061-072>074-084-231100-
   CENTRAL IOWA

CITY           SKY/WX    TMP DP  RH WIND       PRES   REMARKS
AMES           CLEAR     39  39 100 SE5       29.89F
ANKENY *       CLEAR     46  41  81 S5        29.91F
BOONE *        CLEAR     46  37  71 S8        29.87F
CHARITON *     CLEAR     45  41  87 SW9       29.93F
DES MOINES     CLEAR     46  40  79 S9        29.90F
GRINNELL*      CLEAR     41  39  91 S5        29.93F
KNOXVILLE *    CLEAR     45  39  81 S9        29.91F
MARSHALLTOWN   CLEAR     44  40  85 S7        29.90F
NEWTON *       CLEAR     41  39  93 S7        29.92F
PELLA *        CLEAR     43  40  87 S3        29.94F
PERRY *          N/A     42  39  90 S6        29.88F
$$

IAZ004>006-015-016-023>025-035-036-231100-
   NORTH CENTRAL IOWA

CITY           SKY/WX    TMP DP  RH WIND       PRES   REMARKS
ALGONA *       PTCLDY    45  37  76 S10       29.83F
CLARION *      PTCLDY    46  39  76 S12       29.86F
ESTHERVILLE    CLEAR     40  36  86 S6        29.82S
FORT DODGE *   MOCLDY    49  35  58 S6        29.86F
MASON CITY     PTCLDY    43  38  82 S8        29.87F
FOREST CITY *    N/A     43  37  81 S3        29.85F
WEBSTER CITY * PTCLDY    45  39  81 S9        29.84F
IOWA FALLS *     N/A     45  40  85 S8        29.89F
$$

IAZ007>011-017>019-026>030-037>042-050>054-066-231100-
   NORTHEAST IOWA

CITY           SKY/WX    TMP DP  RH WIND       PRES   REMARKS
CEDAR RAPIDS   CLOUDY    41  39  93 SW3       29.93F
CHARLES CITY * PTCLDY    45  43  93 S8        29.89F
CLINTON *      CLOUDY    45  45 100 CALM      29.94F
DECORAH *      MOCLDY    45  41  87 S7        29.89F
DUBUQUE        CLOUDY    42  40  92 S3        29.94F
MONTICELLO *   CLOUDY    39  39 100 CALM      29.94F
OELWEIN *      CLEAR     43  41  93 S10       29.92F
WATERLOO       CLEAR     43  40  89 S8        29.90F
$$

IAZ064-065-067-068-078-231100-
   EAST CENTRAL IOWA

CITY           SKY/WX    TMP DP  RH WIND       PRES   REMARKS
DAVENPORT      CLOUDY    45  45 100 NW3       29.95F FOG
IOWA CITY      FOG       44  42  93 CALM      29.96F VSB 3/4
MUSCATINE *    CLOUDY    45  43  93 CALM      29.93F FOG
QUAD CITIES    CLOUDY    47  45  93 CALM      29.93F FOG
$$

IAZ062-063-075>077-085>089-095>099-231100-
   SOUTHEAST IOWA

CITY           SKY/WX    TMP DP  RH WIND       PRES   REMARKS
BURLINGTON     CLOUDY    48  47  96 NW3       29.93F
FAIRFIELD *    CLOUDY    45  41  87 SW3       29.93F
FORT MADISON * CLOUDY    46  46 100 CALM      29.95S
KEOKUK *       CLOUDY    48  45  87 NW5       29.92F
OSKALOOSA *      N/A     40  39  97 S6        29.94F
OTTUMWA        CLOUDY    46  42  86 SW8       29.94F
WASHINGTON *   CLOUDY    45  43  93 W6        29.94F
$$

ABBREVIATIONS USED IN REMARKS
   TC - TEMPERATURES IN CELSIUS
  WCI - WIND CHILL INDEX
   HX - HEAT INDEX
  VSB - VISIBILITY
$$




USA.gov is the U.S. government's official web portal to all federal, state and local government web resources and services.